[[{"header":{"parameterUnit":"m.s-1","parameterCategory":1,"la1":30.2991,"la2":30.254,"lo1":-89.0895,"lo2":-89.0444,"dy":0.0017,"dx":0.0017,"nx":28,"ny":28,"refTime":"2025-03-11T03:00:00:Z","depth":0,"parameterNumber":2,"parameterNumberName":"U-component_of_WINDS"},"data":[0,0,0,0,0,0,0,0,0,0,0,0,0,0,0,0,0,0,0,0,0,0,0,0,0,0,0,0,0,0,0,0,0,0,0,0,0,0,0,0,0,0,0,0,0,0,0,0,0,0,0,0,0,0,0,0,0,0,4.9327,4.9329,0,4.9454,4.9456,4.9457,4.9399,4.9395,4.9392,4.9389,4.952,4.9527,4.9533,0,0,0,0,0,0,0,0,0,0,0,0,0,4.9033,4.9039,4.9327,4.9329,4.933,4.9454,4.9456,4.9457,4.9399,4.9395,4.9391,4.9388,4.9518,4.9526,4.9534,0,0,0,0,0,0,0,0,0,0,0,0,0,4.9161,4.9041,4.9327,4.9316,4.9316,4.9454,4.9456,4.9458,4.94,4.9395,4.939,4.9386,4.9516,4.9525,4.9535,4.969,0,0,4.9564,4.9569,0,0,0,0,0,0,0,0,4.9154,4.9172,4.9316,4.9317,4.9318,4.9406,4.94,4.9536,4.9401,4.9368,4.9389,4.9384,4.9486,4.9498,4.9532,4.9696,4.9702,4.9565,4.9571,4.9575,4.9578,0,0,0,0,0,0,0,4.9145,4.9166,4.9377,4.9318,4.9319,4.9305,4.9318,4.9426,4.9453,4.9371,4.9367,4.9383,4.9486,4.9523,4.9535,4.9704,4.9565,4.9574,4.9579,4.9583,4.9999,5.0004,0,0,0,0,0,0,4.9136,4.9159,4.9373,4.9381,4.9222,4.9314,4.9328,4.9382,4.9451,4.9457,4.9387,4.9379,4.9509,4.9524,4.9539,4.9723,4.9575,4.9584,4.959,4.9993,5.0,5.0005,0,0,0,0,0,0,4.913,4.9156,4.9368,4.9269,4.9295,4.9324,4.9385,4.9387,4.9424,4.9463,4.9468,4.942,4.9506,4.9526,4.9652,4.9727,4.9589,4.9597,4.9987,4.9995,5.0003,5.0094,0,0,0,0,0,0,4.9122,4.9154,4.9214,4.9271,4.93,4.9479,4.939,4.9393,4.9441,4.9433,4.9496,4.9501,4.9504,4.9638,4.9662,4.9738,4.9605,4.9981,4.9991,5.0,5.0084,5.0104,5.0121,0,0,0,0,0,4.9112,4.9235,4.9217,4.9243,4.9375,4.9484,4.9501,4.95,4.9448,4.9507,4.9532,4.9499,4.9716,4.9652,4.9678,4.9758,4.9976,4.9988,4.9999,5.0076,5.01,5.012,0,0,0,0,0,0,4.9187,4.9243,4.9223,4.9369,4.9422,4.9474,4.9549,4.9526,4.9596,4.9585,4.9582,4.9597,4.9727,4.9756,4.9684,4.991,4.9837,4.9855,4.9887,4.991,4.9928,4.9917,4.9613,0,0,0,0,0,4.922,4.9304,4.9348,4.9472,4.95,4.952,4.9567,4.9562,4.9618,4.964,4.9674,4.9728,4.9808,4.9861,4.9937,5.0089,5.01,5.0157,5.0175,5.0189,5.0204,5.0283,5.0308,5.0044,5.0044,5.0044,0,0,4.929,4.9331,4.9384,4.9488,4.9529,4.9614,4.9539,4.9634,4.9697,4.9654,4.9775,4.9802,4.9863,5.0002,5.0065,5.0029,5.028,5.0204,5.0216,5.0222,5.0298,5.0323,5.0345,5.0052,5.005,5.0049,0,0,4.9461,4.9501,4.9608,4.965,4.9712,4.9724,4.975,4.9805,4.9821,4.9942,4.9911,4.9986,5.0125,5.0168,5.0209,5.0395,5.0367,5.042,5.0514,5.0591,5.0612,5.0631,5.0694,5.0717,5.0435,5.0435,5.0435,0,4.954,4.9668,4.9665,4.9762,4.9807,4.9772,4.9879,4.992,5.0004,5.0037,4.9996,5.0167,5.0206,5.0353,5.0398,5.0433,5.0461,5.0412,5.0609,5.0628,5.0645,5.0705,5.073,5.0441,5.044,5.044,5.0439,0,4.976,4.985,4.9928,5.0009,5.0064,5.0165,5.0177,5.0234,5.0224,5.024,5.0363,5.0408,5.0491,5.0526,5.0519,5.0672,5.0648,5.0609,5.0535,5.0676,5.0732,5.0756,5.0449,5.0447,5.0445,5.0444,0,0,4.9981,5.0058,5.0087,5.0122,5.0188,5.0256,5.0356,5.0436,5.0483,5.0543,5.0624,5.0741,5.0705,5.0751,5.0748,5.0816,5.0957,5.0768,5.0769,5.0799,5.1125,5.1152,5.1179,5.0939,5.0944,5.0947,5.1119,0,5.0154,5.0327,5.0327,5.0487,5.0567,5.0535,5.0621,5.067,5.0688,5.0759,5.078,5.0861,5.0809,5.0835,5.0902,5.0925,5.1022,5.0913,5.1013,5.1017,5.0996,5.1209,5.1239,5.1399,5.1142,5.1146,5.1148,0,5.0379,5.0444,5.0611,5.0662,5.0696,5.0774,5.0846,5.0916,5.097,5.0978,5.1029,5.1015,5.1115,5.104,5.1176,5.1102,5.1143,5.1161,5.1167,5.1174,5.1089,5.122,5.145,5.1473,5.1184,5.1181,5.1178,0,5.0519,5.0649,5.0765,5.0796,5.086,5.0915,5.0944,5.0994,5.1042,5.1106,5.1136,5.1212,5.1252,5.131,5.1316,5.1262,5.1453,5.1379,5.1461,5.1461,5.1501,5.1498,5.1738,5.1532,5.1532,5.1531,5.1531,0,5.071,5.0813,5.0828,5.0899,5.1013,5.1012,5.1125,5.1149,5.1194,5.1268,5.1246,5.1316,5.1321,5.1394,5.1399,5.151,5.1529,5.1537,5.1537,5.1538,5.1536,5.1563,5.1551,5.1538,5.1536,5.1535,5.1534,0,5.0885,5.09,5.1024,5.1074,5.1089,5.117,5.1212,5.128,5.1296,5.139,5.1412,5.1437,5.1521,5.1533,5.1632,5.1635,5.1767,5.1757,5.1748,5.1745,5.1825,5.1816,5.2089,5.2124,5.1898,5.19,5.1902,0,5.1005,5.1083,5.1141,5.1189,5.1221,5.1299,5.1347,5.135,5.1401,5.1468,5.1527,5.1608,5.1673,5.1808,5.1834,5.1909,5.1898,5.1989,5.1909,5.1907,5.1896,5.189,5.1896,5.2003,5.2006,5.2008,5.2009,0,5.1215,5.1218,5.1288,5.1361,5.1419,5.1476,5.153,5.1571,5.158,5.1639,5.1723,5.1774,5.1873,5.1953,5.2027,5.2056,5.2034,5.2034,5.2057,5.2057,5.2047,5.205,5.1786,5.2028,5.2026,5.2024,5.2023,5.2023,5.1364,5.1431,5.1481,5.156,5.1601,5.1651,5.1716,5.174,5.181,5.1891,5.1888,5.1981,5.2032,5.2128,5.2163,5.2235,5.2205,5.2238,5.2246,5.2253,5.226,5.2038,5.2249,5.2248,5.2248,5.2247,5.2247,0,5.157,5.1601,5.1673,5.1748,5.181,5.1784,5.1842,5.1895,5.1976,5.2026,5.209,5.2186,5.2263,5.2296,5.2371,5.2422,5.2414,5.2442,5.2436,5.2443,5.2283,5.2255,5.2447,5.2447,5.2447,5.2447,5.2447,5.2447,5.1684,5.1794,5.1803,5.1933,5.1964,5.2053,5.2088,5.2134,5.2174,5.2282,5.2346,5.2366,5.2408,5.2487,5.2556,5.2563,5.2591,5.2623,5.2625,5.2475,5.2455,5.2435,5.2408,5.263,5.263,5.2778,5.278,5.2781]},{"header":{"parameterUnit":"m.s-1","parameterCategory":1,"la1":30.2991,"la2":30.254,"lo1":-89.0895,"lo2":-89.0444,"dy":0.0017,"dx":0.0017,"nx":28,"ny":28,"refTime":"2025-03-11T03:00:00:Z","depth":0,"parameterNumber":3,"parameterNumberName":"V-component_of_WINDS"},"data":[0,0,0,0,0,0,0,0,0,0,0,0,0,0,0,0,0,0,0,0,0,0,0,0,0,0,0,0,0,0,0,0,0,0,0,0,0,0,0,0,0,0,0,0,0,0,0,0,0,0,0,0,0,0,0,0,0,0,3.6492,3.6494,0,3.6613,3.6614,3.6616,3.6609,3.6607,3.6605,3.6604,3.6724,3.6728,3.6733,0,0,0,0,0,0,0,0,0,0,0,0,0,3.6252,3.6257,3.6492,3.6494,3.6495,3.6613,3.6614,3.6616,3.6609,3.6607,3.6605,3.6603,3.6722,3.6728,3.6734,0,0,0,0,0,0,0,0,0,0,0,0,0,3.6363,3.6258,3.6492,3.6506,3.6509,3.6612,3.6614,3.6616,3.661,3.6607,3.6604,3.6602,3.672,3.6727,3.6734,3.6831,0,0,3.6756,3.6759,0,0,0,0,0,0,0,0,3.6357,3.6372,3.6503,3.6505,3.6508,3.6593,3.6574,3.6688,3.661,3.6571,3.6604,3.6601,3.6682,3.6692,3.672,3.6836,3.6841,3.6757,3.6761,3.6764,3.6766,0,0,0,0,0,0,0,3.6349,3.6366,3.654,3.6505,3.6508,3.6505,3.6518,3.6595,3.664,3.6574,3.6574,3.6589,3.6683,3.6714,3.6723,3.6843,3.6757,3.6763,3.6768,3.677,3.7042,3.7045,0,0,0,0,0,0,3.6339,3.636,3.6536,3.6544,3.6425,3.6512,3.6526,3.6569,3.6639,3.6647,3.6591,3.6588,3.6703,3.6715,3.6727,3.6844,3.6764,3.6771,3.6775,3.7039,3.7043,3.7046,0,0,0,0,0,0,3.6334,3.6354,3.6531,3.6452,3.6474,3.6518,3.6566,3.6572,3.6603,3.6651,3.6659,3.6614,3.6701,3.6717,3.6805,3.6848,3.6774,3.6781,3.7036,3.704,3.7044,3.7078,0,0,0,0,0,0,3.6327,3.6353,3.6391,3.6453,3.6478,3.6608,3.6569,3.6577,3.6616,3.6613,3.6675,3.6683,3.67,3.6794,3.6812,3.6857,3.6787,3.7032,3.7038,3.7043,3.7073,3.7083,3.7091,0,0,0,0,0,3.6318,3.6395,3.6393,3.6414,3.6527,3.6611,3.6625,3.6645,3.6619,3.6657,3.6688,3.6681,3.684,3.6803,3.6823,3.6871,3.7029,3.7036,3.7042,3.7069,3.7081,3.7091,0,0,0,0,0,0,3.6337,3.6404,3.6402,3.6502,3.6551,3.6609,3.6658,3.6657,3.6713,3.6709,3.6729,3.6743,3.6831,3.6859,3.6817,3.6966,3.6931,3.6942,3.6945,3.6957,3.6965,3.6957,3.6793,0,0,0,0,0,3.6352,3.6416,3.647,3.6553,3.6578,3.6614,3.6651,3.6662,3.6713,3.6733,3.677,3.6819,3.688,3.692,3.6979,3.7077,3.709,3.7119,3.7128,3.7136,3.7145,3.7197,3.7211,3.7067,3.7067,3.7067,0,0,3.6385,3.643,3.6469,3.6558,3.6597,3.6661,3.6631,3.67,3.6747,3.6743,3.6828,3.6857,3.6913,3.7006,3.7049,3.7032,3.7187,3.7144,3.7149,3.7155,3.7205,3.7219,3.7231,3.7071,3.7071,3.707,0,0,3.6478,3.6519,3.6592,3.6632,3.6692,3.6715,3.6732,3.6791,3.681,3.6896,3.6894,3.6949,3.7054,3.7094,3.7127,3.7233,3.7228,3.7252,3.7299,3.735,3.7361,3.7372,3.7408,3.7421,3.7261,3.7261,3.7261,0,3.6512,3.6609,3.6629,3.6699,3.6737,3.6737,3.681,3.6847,3.6923,3.6949,3.6929,3.706,3.7098,3.7199,3.7225,3.7253,3.7272,3.7245,3.7358,3.7369,3.7378,3.7414,3.7428,3.7263,3.7263,3.7263,3.7262,0,3.6646,3.6714,3.6765,3.6839,3.6883,3.6954,3.6983,3.7025,3.7032,3.7056,3.7142,3.7187,3.7255,3.7279,3.7286,3.7382,3.7369,3.7354,3.7319,3.7394,3.7428,3.7441,3.7267,3.7266,3.7265,3.7264,0,0,3.6755,3.6839,3.6857,3.689,3.6956,3.7007,3.7077,3.7144,3.7179,3.723,3.7288,3.7377,3.7362,3.7401,3.7411,3.7456,3.7536,3.7435,3.7437,3.7452,3.7642,3.7653,3.7669,3.7533,3.7535,3.7538,3.7637,0,3.6854,3.698,3.6999,3.7109,3.717,3.717,3.7231,3.7276,3.7301,3.7355,3.7381,3.7443,3.742,3.7443,3.7488,3.7517,3.7574,3.751,3.7586,3.7588,3.7572,3.7686,3.7699,3.7791,3.7651,3.7653,3.7654,0,3.6987,3.7043,3.7159,3.7215,3.7242,3.7296,3.7358,3.741,3.7461,3.7476,3.7518,3.7523,3.7593,3.7555,3.7651,3.7607,3.7639,3.7657,3.7661,3.7669,3.7626,3.7696,3.7821,3.7834,3.7675,3.7674,3.7672,0,3.7054,3.7158,3.7241,3.7269,3.7337,3.7374,3.7404,3.7453,3.7491,3.7544,3.7569,3.763,3.7663,3.7708,3.7729,3.7699,3.7823,3.7787,3.7836,3.7836,3.7862,3.786,3.7993,3.7883,3.7883,3.7883,3.7883,0,3.7162,3.7233,3.7272,3.7322,3.7401,3.7422,3.7498,3.7526,3.7569,3.7624,3.7627,3.7678,3.7702,3.7757,3.7773,3.7849,3.7864,3.7877,3.788,3.7876,3.7875,3.7897,3.7891,3.7887,3.7886,3.7885,3.7884,0,3.725,3.7279,3.7369,3.7426,3.7441,3.7497,3.7544,3.7592,3.7616,3.7685,3.7702,3.7739,3.7803,3.7828,3.7906,3.7916,3.8004,3.8003,3.7988,3.7988,3.8036,3.803,3.8187,3.8208,3.8085,3.8086,3.8087,0,3.7318,3.7372,3.7435,3.7472,3.7503,3.7564,3.7603,3.7624,3.7665,3.7726,3.7767,3.7831,3.7883,3.7985,3.8017,3.8076,3.8075,3.8126,3.8084,3.8078,3.8075,3.8072,3.8077,3.8134,3.8135,3.8136,3.8137,0,3.7434,3.7445,3.7502,3.7564,3.7611,3.7661,3.7709,3.7739,3.7767,3.7812,3.7878,3.7919,3.7998,3.8061,3.8122,3.815,3.8148,3.815,3.8164,3.8161,3.8149,3.8155,3.8008,3.8146,3.8145,3.8145,3.8144,3.8144,3.7513,3.7561,3.7612,3.7675,3.7714,3.7759,3.7807,3.7836,3.7892,3.7959,3.7968,3.8038,3.8085,3.8167,3.8198,3.8252,3.8238,3.8259,3.8264,3.8269,3.8272,3.8141,3.8263,3.8262,3.8262,3.8262,3.8262,0,3.7629,3.7661,3.7719,3.7787,3.7836,3.7831,3.7883,3.7924,3.7986,3.8032,3.8083,3.8158,3.8218,3.8255,3.8316,3.8352,3.8352,3.8367,3.8364,3.837,3.8281,3.8262,3.8365,3.8365,3.8365,3.8365,3.8365,3.8365,3.7695,3.7775,3.7792,3.7891,3.7923,3.7993,3.8023,3.8063,3.81,3.8183,3.8234,3.8258,3.8299,3.8363,3.8417,3.8426,3.8448,3.8464,3.8471,3.8387,3.8377,3.8366,3.8349,3.8468,3.8469,3.8556,3.8557,3.8558]}]]